User: anonymous   Login
Location: Az?znagar
(16.8373°N, 80.5091°E)
Time: 02:39:17
(UTC+00:00)
Language:

CZ-4C R/B - Orbit

View from above orbital plane
View from above orbital plane
View from above satellite
View from above satellite

Ground track
Ground track

The orbit data is extracted from the following two-line orbital elements,

1 32290U 07055B   22147.51405650  .00012267  00000-0  25304-3 0  9990
2 32290  97.6774 348.9234 0052938 155.1029 205.2791 15.44497655809251
Epoch (UTC): 27 May 2022 12:20:14
Eccentricity: 0.0052938
inclination: 97.6774°
perigee height: 397 km
apogee height: 469 km
right ascension of ascending node: 348.9234°
argument of perigee: 155.1029°
revolutions per day: 15.44497655
mean anomaly at epoch: 205.2791°
orbit number at epoch: 80925

The dashed part of the orbit path shows where the satellite is in the earth's shadow,  

DLR